www.pogodaiklimat.ru

Архив погоды в Брюсселе (Бельгия)

Время
(UTC), дата
04 22.11
05 22.11
06 22.11
07 22.11
08 22.11
09 22.11
10 22.11
11 22.11
12 22.11
13 22.11
14 22.11
15 22.11
16 22.11
17 22.11
18 22.11
19 22.11
20 22.11
21 22.11
22 22.11
23 22.11
00 23.11
01 23.11
02 23.11
03 23.11
04 23.11
05 23.11
06 23.11
07 23.11
08 23.11
09 23.11
10 23.11
11 23.11
12 23.11
13 23.11
14 23.11
15 23.11
16 23.11
17 23.11
18 23.11
19 23.11
20 23.11
21 23.11
22 23.11
23 23.11
00 24.11
01 24.11
02 24.11
03 24.11
04 24.11
05 24.11
06 24.11
07 24.11
08 24.11
09 24.11
10 24.11
11 24.11
12 24.11
13 24.11
14 24.11
15 24.11
16 24.11
17 24.11
18 24.11
19 24.11
20 24.11
21 24.11
22 24.11
23 24.11
00 25.11
01 25.11
02 25.11
03 25.11
04 25.11
05 25.11
06 25.11
07 25.11
08 25.11
09 25.11
10 25.11
11 25.11
12 25.11
13 25.11
14 25.11
15 25.11
16 25.11
17 25.11
18 25.11
19 25.11
20 25.11
21 25.11
22 25.11
23 25.11
00 26.11
01 26.11
02 26.11
03 26.11
04 26.11
05 26.11
06 26.11
07 26.11
08 26.11
09 26.11
10 26.11
11 26.11
12 26.11
13 26.11
14 26.11
15 26.11
16 26.11
17 26.11
18 26.11
19 26.11
20 26.11
21 26.11
22 26.11
23 26.11
00 27.11
01 27.11
02 27.11
03 27.11
04 27.11
05 27.11
06 27.11
07 27.11
08 27.11
09 27.11
10 27.11
11 27.11
12 27.11
13 27.11
14 27.11
15 27.11
16 27.11
17 27.11
18 27.11
19 27.11
20 27.11
21 27.11
22 27.11
23 27.11
00 28.11
01 28.11
02 28.11
03 28.11
04 28.11
05 28.11
06 28.11
07 28.11
08 28.11
09 28.11
10 28.11
11 28.11
12 28.11
13 28.11
15 28.11
16 28.11
17 28.11
18 28.11
19 28.11
20 28.11
21 28.11
22 28.11
00 29.11
01 29.11
02 29.11
Ветер
(напр.,м/с)
Видим. Явления Облачность Т
(С)
Тd
(С)
f
(%)
Тe
(С)
Тes
(С)
Комфортность P
(гПа)
Po
(гПа)
Тmin
(С)
Tmax
(С)
R
(мм)
R24
(мм)
S
(см)
Ю 5
{8}
20 км 1/0
[Ci fib]
+4.8 +2.4 84 0 0 по сезону 992.8 986.1
Ю 5
{9}
20 км 5/5 480 м
[Sc diur, vesp Ci fib]
+4.3 +1.9 84 -1 -1 тепло 992.7 986.1
Ю 5
{11}
20 км 5/5 540 м
[Sc diur, vesp Ci fib]
+4.2 +1.9 85 -1 -1 прохладно 992.6 985.9 +4.2 1
Ю 4
{7}
40 км 10/9 420 м
[Sc]
+5.3 +2.7 83 +1 +1 по сезону 992.9 986.3
Ю 5
{9}
40 км 9/9 400 м
[Sc]
+5.6 +2.9 83 +1 +1 тепло 993.3 986.6
Ю 5
{9}
40 км 10/9 360 м
[Sc]
+5.8 +3.2 83 +1 +1 по сезону 993.1 986.4
Ю 6
{9}
20 км слаб. дождь 10/9 300 м
[Sc]
+6.0 +3.8 86 +1 +1 по сезону 993.0 986.4
Ю 6
{8}
50 км в посл. час дождь 9/9 480 м
[Sc]
+7.2 +4.1 81 +3 +3 тепло 992.6 986.0
Ю 6
{11}
15 км слаб. дождь 10/9 150 м
[Sc]
+6.8 +4.6 86 +2 +2 прохладно 992.6 986.0 0.0
Ю 6
{8}
50 км в посл. час дождь 10/9 450 м
[Sc]
+7.8 +4.9 82 +4 +4 по сезону 992.2 985.6
Ю 6
{10}
50 км 9/9 450 м
[Sc]
+8.2 +5.3 82 +4 +4 тепло 992.3 985.7
ЮЗ 8
{12}
50 км {дождь} 9/8 540 м
[Sc]
+8.8 +5.4 79 +4 +4 по сезону 992.5 985.9
ЮЗ 6
{15}
50 км 8/3 540 м
[Sc Ac As]
+8.1 +5.0 81 +4 +4 по сезону 993.0 986.4
Ю 7
{10}
15 км слаб. дождь 10/9 180 м
[Sc]
+8.6 +5.5 81 +4 +4 тепло 993.2 986.6
Ю 7
{15}
30 км в посл. час дождь 10/9 660 м
[Sc]
+9.1 +5.4 78 +5 +5 по сезону 993.5 986.9 +9.2 0.0
Ю 6
{12}
8000 м слаб. ливневой дождь 9/9 500 м
[Cb calv]
+8.5 +5.9 84 +5 +5 тепло 993.7 987.1
Ю 7
{13}
10 км слаб. ливневой дождь 9/9 360 м
[Cb calv Ac cuf]
+8.3 +6.4 88 +4 +4 тепло 993.9 987.3
ЮЗ 6
{13}
20 км в посл. час ливневой снег 9/9 660 м
[Cb calv Ac cuf]
+8.1 +6.4 89 +4 +4 по сезону 994.7 988.1
ЮЗ 6
{8}
20 км в посл. час ливневой дождь 9/9 420 м
[Cb calv Ac cuf]
+8.4 +6.4 87 +4 +4 тепло 995.6 989.0
ЮЗ 5
{8}
20 км в посл. час ливневой дождь 6/6 540 м
[Sc diur, vesp Ci fib]
+8.7 +6.1 84 +5 +5 тепло 996.0 989.4
ЮЗ 5
{13}
20 км {ливн. дождь} 9/9 540 м
[Sc diur, vesp]
+8.7 +5.8 82 +5 +5 по сезону 996.5 989.9 0.5
ЮЗ 5
{9}
20 км 9/9 570 м
[Sc diur, vesp]
+8.5 +6.1 85 +5 +5 тепло 996.9 990.3
ЮЗ 6
{9}
20 км 9/9 600 м
[Sc diur, vesp]
+8.8 +5.7 81 +5 +5 тепло 997.0 990.4
ЮЗ 6
{9}
20 км 9/9 600 м
[Sc diur, vesp]
+8.5 +5.1 79 +5 +5 по сезону 997.1 990.5
ЮЗ 5
{9}
20 км 9/9 1200 м
[Sc diur, vesp]
+8.0 +5.1 82 +4 +4 тепло 997.4 990.8
Ю 4
{8}
20 км 6/6 1500 м
[Sc diur, vesp Ci fib]
+8.1 +5.0 81 +5 +5 тепло 997.0 990.4
Ю 5
{9}
20 км 3/0 2000 м
[Ac cuf Ci fib]
+7.1 +4.0 81 +3 +3 по сезону 997.0 990.3 +7.1 0.5
Ю 6
{8}
20 км 1/1 1350 м
[Sc]
+6.5 +3.8 83 +2 +2 по сезону 997.0 990.3
Ю 6
{10}
20 км 1/1 1350 м
[Sc]
+6.1 +3.6 84 +1 +1 тепло 998.0 991.3
Ю 6
{10}
20 км 6/6 420 м
[St]
+6.9 +4.1 82 +2 +3 по сезону 997.6 990.9
Ю 8
{12}
20 км 8/8 420 м
[St]
+7.6 +4.6 81 +3 +3 по сезону 997.2 990.6
Ю 7
{12}
20 км 5/4 480 м
[Cu Sc Ac trans Ci fib]
+8.4 +5.1 80 +4 +4 тепло 996.1 989.5
Ю 7
{12}
20 км 6/6 480 м
[Cu Sc Ac trans Ci fib]
+9.6 +5.5 76 +6 +6 по сезону 995.0 988.4
Ю 6
{11}
8000 м слаб. дождь 10/9 800 м
[Cu Sc]
+9.0 +5.7 80 +5 +5 по сезону 995.2 988.6
Ю 7
{10}
6000 м слаб. дождь 10/10 420 м
[Cu Sc]
+8.2 +6.1 87 +4 +4 тепло 996.0 989.4
Ю 5
{11}
15 км слаб. дождь 6/5 420 м
[Sc Ac trans Ci fib]
+7.9 +6.1 88 +4 +4 по сезону 996.8 990.2
Ю 5
{8}
15 км 4/3 420 м
[St Ac trans Ci fib]
+8.0 +6.0 87 +4 +4 по сезону 997.8 991.2
Ю 5
{9}
15 км 3/3 420 м
[St]
+7.8 +5.9 88 +4 +4 тепло 999.0 992.4
Ю 5
{10}
40 км {ливн. дождь} 3/3 1500 м
[Sc Ci fib]
+8.1 +6.1 87 +4 +4 по сезону 1000.0 993.4 +9.7 5
ЮЗ 5
{8}
35 км 3/1 900 м
[Sc diur, vesp Ac cuf Ci ing]
+8.3 +6.1 86 +5 +5 тепло 1000.8 994.2
ЮЗ 6
{9}
20 км 3/1 1140 м
[Sc diur, vesp Ac cuf Ci ing]
+9.0 +6.2 83 +5 +5 тепло 1001.6 995.0
ЮЗ 6
{10}
17 км 3/1 900 м
[Sc diur, vesp Ci ing]
+8.7 +5.8 82 +5 +5 по сезону 1002.2 995.6
ЮЗ 7
{10}
17 км 4/0
[Ac cuf Ci ing]
+8.8 +5.6 80 +5 +5 тепло 1002.9 996.3
ЮЗ 6
{10}
17 км слаб. ливневой дождь 6/3 1500 м
[Sc diur, vesp Ac cuf Ci ing]
+9.0 +5.6 79 +5 +5 тепло 1003.6 997.0
ЮЗ 6
{10}
20 км осадки на расстоянии {ливн. дождь} 6/0
[Ac cuf Ci ing]
+8.9 +5.3 78 +5 +5 по сезону 1003.8 997.2
ЮЗ 6
{10}
18 км осадки на расстоянии 9/3 1050 м
[Sc diur, vesp Ac cuf]
+8.7 +5.4 80 +5 +5 тепло 1004.2 997.6
ЮЗ 5
{10}
15 км осадки на расстоянии 9/3 1020 м
[Sc diur, vesp Ac cuf]
+8.9 +5.7 80 +5 +5 тепло 1004.6 997.9
ЮЗ 7
{14}
15 км слаб. ливневой дождь 9/6 600 м
[Sc diur, vesp Ac cuf]
+9.4 +6.2 80 +5 +5 по сезону 1005.2 998.5
ЮЗ 7
{14}
18 км слаб. ливневой дождь 9/6 1000 м
[Sc diur, vesp Ac cuf]
+8.9 +5.2 78 +5 +5 тепло 1005.7 999.1
ЮЗ 8
{12}
30 км в посл. час ливневой дождь 6/3 1320 м
[Sc diur, vesp Ac cuf Ci ing]
+8.2 +4.9 80 +4 +4 тепло 1006.3 999.6
ЮЗ 8
{14}
35 км 4/4 1050 м
[Sc diur, vesp]
+7.8 +4.8 81 +3 +3 по сезону 1007.3 1000.6 +7.7 0.1
ЮЗ 7
{12}
35 км 1/1 1050 м
[Sc diur, vesp]
+7.7 +5.2 84 +3 +3 тепло 1008.3 1001.6
ЮЗ 7
{12}
35 км ясно +7.7 +5.1 84 +3 +3 тепло 1009.5 1002.8
ЮЗ 7
{12}
35 км ясно +8.5 +5.4 81 +4 +4 по сезону 1010.5 1003.8
ЮЗ 7
{10}
35 км ясно +9.3 +5.8 79 +5 +6 тепло 1011.3 1004.6
ЮЗ 5
{9}
35 км ясно +10.4 +6.4 76 +8 +9 тепло 1011.5 1004.8
Ю 5
{12}
35 км 1/1 1440 м
[Sc diur, vesp Ci fib]
+11.2 +6.6 73 +9 +10 тепло 1011.4 1004.8
Ю 5
{9}
35 км 1/1 720 м
[Cu hum Ci fib]
+11.4 +6.7 73 +9 +10 тепло 1011.2 1004.6
Ю 5
{8}
35 км 5/0
[Cs]
+10.5 +6.2 75 +8 +8 тепло 1011.1 1004.5
Ю 5
{9}
35 км 8/0
[Cs]
+10.0 +6.1 77 +7 +7 по сезону 1011.0 1004.3
Ю 5
{8}
35 км 6/0
[Ci fib]
+9.7 +5.9 77 +7 +7 тепло 1010.8 1004.1
Ю 6
{10}
35 км 4/0
[Ci fib]
+8.9 +5.6 80 +5 +5 тепло 1010.8 1004.2
Ю 7
{11}
35 км 4/0
[Ci fib]
+8.6 +5.4 80 +4 +4 по сезону 1010.5 1003.8 +11.4
Ю 6
{10}
25 км осадки на расстоянии 5/3 1500 м
[Sc diur, vesp Ac As Ci sp]
+8.6 +5.5 81 +5 +5 тепло 1010.3 1003.6
Ю 7
{10}
25 км осадки на расстоянии 6/0
[Ac As Ci sp]
+9.0 +5.9 81 +5 +5 тепло 1010.1 1003.4
Ю 6
{10}
25 км осадки на расстоянии 9/0
[Ac As Ci sp]
+9.5 +6.5 82 +6 +6 по сезону 1009.7 1003.0
Ю 6
{9}
25 км осадки на расстоянии 9/4 1500 м
[Sc diur, vesp Ac As]
+10.1 +6.9 81 +7 +7 тепло 1009.5 1002.9
Ю 6
{10}
25 км слаб. дождь 9/6 1500 м
[Sc diur, vesp Ac As]
+10.8 +7.4 80 +8 +8 тепло 1009.5 1002.8
Ю 6
{11}
25 км осадки на расстоянии 9/4 720 м
[Sc diur, vesp Ac As]
+11.1 +7.2 77 +8 +8 тепло 1009.3 1002.7
ЮЗ 5
{9}
4000 м дождь 9/5 600 м
[Sc diur, vesp As op]
+10.6 +7.9 83 +8 +8 тепло 1009.9 1003.3
З 4
{8}
8000 м дождь 9/0 1350 м
[As op]
+8.7 +6.7 87 +6 +6 тепло 1010.7 1004.0
Ю 5
{9}
35 км слаб. дождь 9/0 1350 м
[Ac As]
+8.3 +6.6 89 +5 +5 по сезону 1010.3 1003.6
Ю 4
{6}
35 км 3/3 750 м
[Sc Ac trans Ci fib]
+8.1 +6.4 89 +5 +5 тепло 1010.9 1004.2
ЮЗ 5
{8}
35 км осадки на расстоянии 6/6 1500 м
[Sc diur, vesp Ac cuf Ci fib]
+8.4 +6.5 88 +5 +5 тепло 1011.5 1004.8
ЮЗ 5
{9}
35 км в посл. час ливневой дождь 4/1 1350 м
[Sc diur, vesp Ac cuf Ci fib]
+8.0 +6.1 88 +4 +4 по сезону 1012.3 1005.6 +7.8 5
ЮЗ 3
{7}
35 км 1/0
[Ci fib]
+7.5 +5.8 89 +5 +5 тепло 1013.0 1006.2
ЮЗ 5
{7}
20 км 1/1 300 м
[Cu Sc Ac trans Ci fib]
+7.6 +5.9 89 +4 +4 тепло 1014.1 1007.4
ЮЗ 6
{9}
20 км 3/3 360 м
[Cu Sc Ac trans Ci ing]
+8.9 +6.8 87 +5 +5 по сезону 1014.5 1007.7
ЮЗ 5
{9}
30 км 1/0
[Ac trans Ci fib]
+9.3 +6.3 82 +6 +7 тепло 1015.4 1008.7
ЮЗ 6
{9}
30 км 1/1 480 м
[Cu hum Ac trans Ci fib]
+10.2 +6.0 75 +7 +8 тепло 1016.2 1009.5
З 6
{9}
30 км 1/0
[Ci fib]
+10.7 +6.2 74 +8 +8 тепло 1017.1 1010.4
З 5
{9}
30 км 3/1 570 м
[Cu hum Ci fib]
+10.6 +6.2 74 +8 +9 тепло 1017.9 1011.2
ЮЗ 4
{8}
30 км 4/3 600 м
[Sc diur, vesp Ci fib]
+10.4 +7.0 79 +8 +8 тепло 1018.5 1011.8
ЮЗ 3
{9}
30 км 1/1 600 м
[Sc diur, vesp Ci fib]
+10.3 +7.2 81 +8 +8 тепло 1019.4 1012.7
ЮЗ 4
{6}
30 км 1/1 600 м
[Sc diur, vesp Ci fib]
+9.0 +6.8 86 +6 +6 тепло 1020.5 1013.7
ЮЗ 4
{5}
20 км 1/1 630 м
[Sc diur, vesp Ci fib]
+8.6 +6.5 87 +5 +5 тепло 1021.6 1014.8
ЮЗ 3
{9}
20 км 1/0
[Ci fib]
+7.1 +5.3 88 +4 +4 по сезону 1022.5 1015.7 +11.0
ЮЗ 3
{4}
20 км 1/0
[Ci fib]
+7.1 +5.4 89 +4 +4 тепло 1023.5 1016.6
ЮЗ 3
{4}
20 км 1/0
[Ci fib]
+6.2 +4.8 91 +3 +3 тепло 1024.1 1017.3
ЮЗ 3
{4}
20 км 1/0
[Ci fib]
+5.9 +4.4 90 +3 +3 по сезону 1025.0 1018.1
ЮЗ 3
{4}
20 км 1/0
[Ci fib]
+5.9 +4.5 91 +3 +3 по сезону 1025.9 1019.0
Ю 4
{5}
20 км 1/0
[Ci fib]
+6.0 +4.4 89 +2 +2 тепло 1026.4 1019.5
ЮЗ 4
{5}
20 км 1/0
[Ci fib]
+5.7 +4.2 90 +2 +2 по сезону 1027.0 1020.1
Ю 4
{5}
15 км 1/0
[Ci fib]
+5.4 +3.8 89 +1 +1 по сезону 1027.1 1020.2
Ю 4
{5}
15 км 1/0
[Ci fib]
+5.4 +3.9 90 +1 +1 тепло 1027.3 1020.4
Ю 4
{5}
15 км 1/0
[Ci fib]
+5.4 +3.7 89 +1 +1 по сезону 1027.9 1021.0
ЮЗ 4
{5}
15 км 1/0
[Ci fib]
+5.6 +3.9 89 +2 +2 тепло 1028.0 1021.1
ЮЗ 4
{6}
15 км 6/0
[Ci fib]
+5.1 +3.5 89 +1 +1 тепло 1028.2 1021.3
Ю 4
{6}
20 км 8/0
[Ci fib]
+5.4 +3.7 89 +1 +1 по сезону 1028.6 1021.7 +4.8
Ю 4
{5}
20 км 6/0
[Ci fib]
+5.0 +3.5 90 +1 +1 по сезону 1029.0 1022.1
Ю 4
{5}
20 км 6/0
[Ac trans Ci fib]
+5.2 +3.6 89 +1 +1 тепло 1029.3 1022.4
Ю 4
{5}
20 км 8/0
[Ac trans Ci fib]
+6.8 +4.9 88 +3 +3 по сезону 1029.5 1022.6
Ю 4
{5}
20 км 8/0
[Ac trans Ci fib]
+8.1 +5.7 85 +5 +6 тепло 1029.7 1022.8
Ю 3
{5}
20 км 9/0
[Ac trans Ci fib]
+9.5 +6.6 82 +7 +8 тепло 1029.6 1022.8
ЮЗ 3
{6}
20 км 6/0
[Ac trans Ci fib]
+10.4 +7.0 79 +8 +10 тепло 1029.3 1022.5 0.0
ЮЗ 4
{7}
20 км 6/0
[Ac trans Ci fib]
+10.8 +6.7 76 +8 +9 тепло 1029.4 1022.7
Ю 4
{7}
20 км 6/0
[Ac trans Ci fib]
+11.1 +6.4 73 +9 +9 тепло 1028.6 1021.9
Ю 3
{7}
20 км 4/1 600 м
[Cu hum Ac trans Ci fib]
+9.9 +6.2 78 +8 +8 тепло 1028.6 1021.8
Ю 4
{6}
20 км 3/0
[Ac trans Ci fib]
+8.4 +5.8 84 +5 +5 тепло 1028.6 1021.8
Ю 4
{6}
20 км 4/0
[Ac trans Ci fib]
+7.4 +4.9 84 +4 +4 тепло 1028.3 1021.5
Ю 4
{7}
20 км 4/0
[Ac trans Ci fib]
+6.7 +4.4 85 +3 +3 по сезону 1027.9 1021.1 +11.2 0.0
Ю 5
{8}
25 км 6/0
[Ac trans Ci fib]
+6.6 +4.4 86 +2 +2 по сезону 1027.5 1020.7
Ю 5
{8}
25 км 6/0
[Ac trans Ci fib]
+6.8 +4.4 85 +3 +3 тепло 1027.3 1020.5
Ю 5
{8}
25 км 9/0
[Ac trans]
+6.8 +4.3 84 +3 +3 по сезону 1027.4 1020.5
Ю 5
{8}
30 км 9/0
[Ac trans]
+7.0 +4.5 84 +3 +3 тепло 1026.5 1019.6
Ю 6
{9}
30 км 9/0
[Ac trans]
+6.9 +4.5 85 +2 +2 тепло 1025.6 1018.8
Ю 5
{9}
30 км 9/0
[Ac trans]
+6.7 +4.3 85 +3 +3 по сезону 1025.4 1018.5
Ю 6
{9}
30 км 9/0
[Ac trans]
+6.9 +4.2 83 +2 +2 тепло 1024.0 1017.2
Ю 6
{11}
30 км 9/0
[Ac trans]
+6.9 +3.9 81 +2 +2 тепло 1023.6 1016.7
Ю 6
{11}
30 км 9/0
[Ac trans]
+6.7 +3.2 78 +2 +2 по сезону 1022.8 1016.0
Ю 6
{10}
30 км 9/0 2000 м
[Ac trans]
+6.8 +3.1 77 +2 +2 тепло 1022.8 1016.0
Ю 4
{7}
20 км слаб. дождь 9/6 1140 м
[Sc Ac trans]
+6.8 +3.5 79 +3 +3 тепло 1022.7 1015.9
Ю 5
{11}
20 км слаб. дождь 9/1 1050 м
[Sc diur, vesp Ac trans]
+6.7 +4.0 83 +3 +3 по сезону 1021.8 1015.0 +6.4 0.3
Ю 5
{8}
20 км слаб. дождь 10/0 2000 м
[Ac As]
+6.7 +3.8 82 +3 +3 тепло 1021.1 1014.3
Ю 4
{8}
25 км слаб. дождь 10/10 1500 м
[Ac As]
+6.9 +3.9 81 +3 +3 тепло 1020.7 1013.9
Ю 5
{8}
25 км слаб. дождь 10/10 1500 м
[Ac As]
+7.2 +4.0 80 +3 +3 по сезону 1020.3 1013.5
Ю 5
{8}
25 км слаб. дождь 10/10 1380 м
[Ac As]
+7.1 +4.0 81 +3 +3 тепло 1019.9 1013.1
Ю 4
{8}
25 км слаб. дождь 10/10 1200 м
[Ac As]
+7.1 +4.4 83 +4 +4 тепло 1019.2 1012.4
Ю 3
{8}
25 км в посл. час дождь 10/10 1140 м
[Sc]
+7.9 +4.8 81 +5 +5 по сезону 1018.2 1011.4 0.6
Ю 4
{5}
25 км слаб. дождь 10/10 1020 м
[Sc]
+7.9 +4.2 77 +5 +5 тепло 1017.4 1010.7
Ю 4
{6}
25 км слаб. дождь 10/10 1000 м
[Ac As]
+7.8 +4.5 80 +5 +5 тепло 1016.7 1009.9
Ю 4
{6}
25 км слаб. дождь 10/10 1000 м
[Ac As]
+7.8 +4.4 79 +5 +5 по сезону 1015.6 1008.9
Ю 3
{9}
25 км слаб. дождь 10/10 750 м
[Ac As]
+7.8 +4.3 79 +5 +5 тепло 1014.9 1008.1
Ю 3
{6}
25 км слаб. дождь 10/10 840 м
[Ac As]
+7.4 +4.5 82 +5 +5 тепло 1014.0 1007.3
Ю 4
{9}
25 км слаб. дождь 10/10 750 м
[Ac As]
+7.4 +4.8 84 +4 +4 по сезону 1013.0 1006.3 +8.2 1
Ю 3
{7}
25 км слаб. дождь 10/10 540 м
[Ac As]
+7.3 +4.8 84 +4 +4 тепло 1012.7 1006.0
Ю 4
{7}
25 км слаб. дождь 10/10 540 м
[Ac As]
+7.8 +5.1 83 +4 +4 тепло 1011.8 1005.1
Ю 5
{7}
35 км в посл. час дождь 10/10 630 м
[Ac As]
+8.6 +5.7 82 +5 +5 по сезону 1011.2 1004.5
Ю 5
{8}
35 км 9/0 960 м
[Ac As]
+8.7 +5.4 80 +5 +5 тепло 1010.5 1003.8
Ю 5
{8}
35 км 10/10 900 м
[Ac As]
+9.2 +5.3 77 +6 +6 тепло 1010.3 1003.7
Ю 6
{9}
35 км слаб. дождь 9/0 700 м
[Ac As]
+8.7 +4.8 76 +5 +5 тепло 1010.2 1003.6 1
Ю 4
{9}
20 км слаб. дождь 9/0 540 м
[Ac As]
+8.3 +5.1 80 +5 +5 тепло 1010.1 1003.4
Ю 4
{7}
4500 м слаб. дождь 10/10 450 м
[Ac As]
+7.8 +5.8 87 +4 +4 тепло 1009.7 1003.0
Ю 4
{9}
6000 м слаб. дождь 10/10 240 м
[Ac As]
+7.7 +6.1 90 +4 +4 по сезону 1009.5 1002.8
ЮЗ 4
{7}
15 км слаб. дождь 9/0 150 м
[Ac As]
+7.8 +6.2 90 +4 +4 тепло 1009.4 1002.7
ЮЗ 4
{6}
9000 м слаб. дождь 9/0 150 м
[Ac As]
+7.8 +6.4 91 +4 +4 тепло 1009.6 1002.9
ЮЗ 4
{9}
20 км слаб. морось 9/9 150 м
[Frnb Ac As]
+7.9 +6.5 91 +4 +4 тепло 1009.7 1003.0 +7.3 3
ЮЗ 4
{7}
12 км 10/9 150 м
[St]
+8.2 +6.7 90 +5 +5 тепло 1010.0 1003.3
ЮЗ 3
{6}
10 км в посл. час дождь {морось} 10/10 150 м
[Sc]
+8.3 +6.8 90 +6 +6 тепло 1010.4 1003.7
ЮЗ 4
{7}
10 км {дождь, морось} 10/9 210 м
[St]
+8.8 +7.1 89 +6 +6 тепло 1010.8 1004.1
ЮЗ 4
{6}
10 км 9/9 240 м
[Sc]
+9.1 +7.3 88 +6 +6 тепло 1011.0 1004.3
ЮЗ 4
{6}
10 км 9/5 240 м
[Sc Ac trans]
+9.4 +7.5 88 +6 +7 тепло 1011.0 1004.3
ЮЗ 3
{7}
10 км 9/6 240 м
[St Ac trans]
+9.7 +7.6 87 +7 +8 тепло 1011.0 1004.4 0.1
ЮЗ 3
{5}
10 км 10/9 270 м
[St]
+9.8 +7.5 86 +8 +8 тепло 1011.2 1004.5
ЮЗ 3
{5}
10 км 9/9 400 м
[Sc]
+9.8 +7.3 84 +8 +8 тепло 1011.7 1005.0
Ю 1
{4}
10 км 9/6 450 м
[Sc Ac trans]
+9.0 +7.1 88 +8 +8 тепло 1011.9 1005.2
Ю 1
{2}
10 км 9/3 480 м
[Sc Ac trans]
+7.9 +6.1 88 +7 +7 тепло 1012.5 1005.8
Ю 1
{5}
9000 м 9/3 450 м
[Sc Ac trans]
+8.1 +6.4 89 +7 +7 тепло 1012.8 1006.1 +10.0 0.1
ЮЗ 3
{4}
10 км 6/4 400 м
[Sc Ac trans Ci fib]
+8.0 +6.2 88 +5 +5 тепло 1013.1 1006.4
Ю 2
{3}
10 км 8/4 1500 м
[Sc Ac trans Ci fib]
+7.2 +5.5 89 +5 +5 тепло 1013.4 1006.6
ЮЗ 2
{4}
10 км 9/9 1500 м
[Sc]
+7.3 +5.8 90 +5 +5 тепло 1013.9 1007.1
штиль 0
{3}
10 км 9/9 900 м
[Sc]
+7.3 +5.6 89 +6 +6 тепло 1014.1 1007.3
Ю 2
{4}
8000 м 1/1 1500 м
[Sc Ac trans Ci fib]
+5.6 +4.2 91 +3 +3 по сезону 1014.6 1007.9
ЮЗ 3
{3}
6000 м 1/1 1500 м
[Sc Ci fib]
+5.2 +3.8 91 +2 +2 тепло 1014.8 1008.0
ЮЗ 3
{3}
6000 м 1/0
[Ci fib]
+4.9 +3.5 91 +1 +1 тепло 1015.2 1008.3
Местоположение метеостанции Брюссель (Бельгия): широта 50.90 долгота 4.53 высота над уровнем моря 58 м.
В архиве по умолчанию представлена погода в Брюсселе за последнюю неделю. Архивные данные за месяц целиком и за предыдущие месяцы, начиная с января 2011 года, Вы можете получить, выбрав интересующий диапазон дат из раскрывающегося списка и нажав кнопку "Найти!".
*Определитесь, кто Вы:
Внимание! Время в таблицах - всемирное. Для получения местного времени необходимо прибавить поправку, которая равна 1 ч.
Смотрите также архив погоды в соседних городах и на ближайших метеорологических станциях:
Партнеры нашего сайта:      
Пояснения к столбцам:
  • Ветер - указаны скорость ветра в м/с - средняя за 10 мин, порывы в срок и между сроками (в фигурных скобках) и направление, откуда дует ветер: С - северный,
  • СВ - северо-восточный, В - восточный, ЮВ - юго-восточный, Ю - южный, ЮЗ - юго-западный, З - западный, СЗ - северо-западный.
  • Видимость - горизонтальная дальность видимости в метрах или километрах. При видимости от 1 до 10 км при отсутствии осадков обычно наблюдается дымка, при ухудшении видимости до 1 км и менее - туман. В сухую погоду видимость может ухудшаться дымом, пылью или мглою.
  • Явления - указаны атмосферные явления, наблюдавшиеся в срок или в последний час перед сроком; фигурными скобками обозначены явления, наблюдавшиеся между сроками (за 1-3 часа до срока); квадратными скобками обозначены град или гололедные отложения с указанием их диаметра в мм.
  • Облачность - указаны через наклонную черту общая и нижняя облачность в баллах и высота нижней границы облаков в метрах; квадратными скобками обозначены формы облаков: Ci - перистые, Cs - перисто-слоистые, Cc - перисто-кучевые, Ac - высококучевые, As - высокослоистые, Sc - слоисто-кучевые, Ns - слоисто-дождевые, Cu - кучевые, Cb - кучево-дождевые. Подробнее классификацию облаков см. в Атласе облаков (PDF).
  • T - Температура воздуха - температура, измеренная на высоте 2 м над землей.
  • Td - Температура точки росы - температура, при понижении до которой содержащийся в воздухе водяной пар достигнет насыщения.
  • f - Относительная влажность воздуха - влажноcть воздуха, измеренная на высоте 2 м над землей.
  • Te - Эффективная температура - температура, которую ощущает одетый по сезону человек в тени. Характеристика душности погоды. При расчете учитывается влияние влажности воздуха и скорости ветра на теплоощущения человека.
  • Tes - Эффективная температура на солнце - температура, которую ощущает человек, с поправкой на солнечный нагрев. Характеристика знойности погоды. Зависит от высоты солнца над горизонтом, облачности и скорости ветра. Ночью, в пасмурную погоду, а также при ветре 12 м/с и более поправка равна нулю.
  • P - Атмосферное давление - приведенное к уровню моря атмосферное давление.
  • Po - Атмосферное давление - измеренное на уровне метеостанции атмосферное давление.
  • Tmin - Минимальная температура - минимум температуры воздуха на высоте 2 м над землей.
  • Tmax - Максимальная температура - максимум температуры воздуха на высоте 2 м над землей.
  • R - Количество осадков - Количество выпавших осадков за период времени, мм. При наведении курсора мыши на число - период времени, за который выпало указанное количество осадков.
  • R24 - Количество осадков - Количество выпавших осадков за 24 часа, мм.
  • S - Снежный покров - Высота снежного покрова, см. При наведении курсора мыши на число - состояние снежного покрова и степень покрытия местности в баллах.